#timestamp,LO_Frequency,Hit,StdDev 
1532584815.3,286046996.8,N
1532584835.1,286046997.7,N
1532584836.0,286046997.7,N
1532584855.8,286046996.0,N
1532584875.7,286046996.2,N
1532584895.5,286046996.0,N
1532584915.3,286046996.0,N
1532584935.2,286046993.6,Y
1532584955.0,286046996.1,P
1532584955.9,286046996.1,N
1532584975.8,286046996.1,N
1532584995.6,286046997.8,N
1532585015.4,286046997.7,N
1532585035.3,286046994.9,Y
1532585055.1,286046998.9,P
1532585075.9,286046996.6,P
1532585095.7,286046997.4,N
1532585115.5,286046999.6,N
1532585135.4,286046999.0,N
1532585155.2,286046996.5,Y
1532585175.0,286046998.3,P
1532585175.9,286046998.3,P
1532585195.8,286047002.4,P
1532585215.6,286047002.5,N
1532585235.5,286046999.7,N
1532585255.3,286047004.2,N
1532585275.1,286047005.4,N
1532585295.9,286047004.5,N
1532585315.7,286047007.1,N
1532585335.5,286047008.5,N
1532585355.4,286047009.4,N
1532585375.2,286047011.4,N
1532585395.1,286047010.4,N
1532585396.0,286047010.4,N
1532585415.8,286047010.7,N
1532585435.6,286047008.7,N
1532585455.5,286047007.6,N
1532585475.3,286047005.3,N
1532585495.1,286047003.6,N
1532585515.9,286047003.3,N
1532585535.7,286047002.0,N
1532585555.6,286046999.7,N
1532585575.4,286047001.0,N
1532585595.2,286047001.2,N
1532585615.1,286046999.3,N
1532585616.0,286046999.3,N
1532585635.8,286046998.6,N
1532585655.6,286046999.4,N
1532585675.5,286046997.2,N
1532585695.3,286046997.4,N
1532585715.1,286046998.0,N
1532585735.9,286046997.4,N
1532585755.7,286046999.5,N
1532585775.6,286046998.8,N
1532585795.4,286046999.3,N
1532585815.2,286046999.5,N
1532585835.1,286046999.5,N
1532585836.0,286046999.5,N
1532585855.8,286046998.7,N
1532585875.6,286047001.0,N
1532585895.5,286047001.1,N
1532585915.3,286047000.7,N
1532585935.2,286047001.0,N
1532585955.9,286047001.2,N
1532585975.7,286047000.0,N
1532585995.6,286046998.4,N
1532586015.4,286046998.9,N
1532586035.2,286046996.5,N
1532586055.1,286046996.5,N
1532586056.0,286046996.5,N
1532586075.8,286046999.6,N
1532586095.7,286046998.8,N
1532586115.5,286046998.9,N
1532586135.3,286046998.1,N
1532586155.2,286047000.3,N
1532586175.0,286046998.1,N
1532586175.9,286046998.1,N
1532586195.8,286046998.5,N
1532586215.6,286046998.5,N
1532586235.4,286046998.2,N
1532586255.3,286047001.1,N
1532586275.1,286046999.1,N
1532586295.8,286046998.2,N
1532586315.7,286046999.0,N
1532586335.5,286046997.1,N
1532586355.3,286046997.8,N
1532586375.2,286046995.6,Y
1532586395.0,286046995.0,P
1532586395.9,286046995.0,N
1532586415.8,286046996.7,N
1532586435.6,286046997.1,N
1532586455.4,286046997.4,N
1532586475.3,286046995.7,Y
1532586495.1,286046998.7,P
1532586515.9,286047001.0,N
1532586535.7,286046999.1,N
1532586555.5,286046999.4,N
1532586575.4,286046997.0,N
1532586595.2,286046996.8,N
1532586615.0,286046997.2,N
1532586615.9,286046997.2,N
1532586635.8,286046994.9,Y
1532586655.6,286046999.2,P
1532586675.5,286046996.9,P
1532586695.3,286046997.3,N
1532586715.1,286046995.0,Y
1532586735.9,286046999.0,P
1532586755.7,286047000.7,N
1532586775.6,286047000.5,N
1532586795.4,286047001.6,N
1532586815.2,286047002.0,N
1532586835.1,286047002.6,N
1532586836.0,286047002.6,N
1532586855.8,286047002.7,N
1532586875.6,286047000.2,N
1532586895.5,286047002.2,N
1532586915.3,286047004.7,Y
1532586935.2,286047005.0,P
1532586955.9,286047003.7,N
1532586975.7,286047005.5,P
1532586995.6,286047003.0,N
1532587015.4,286047003.9,N
1532587035.2,286047001.9,N
1532587055.1,286047002.2,N
1532587056.0,286047002.2,N
1532587075.8,286047000.0,N
1532587095.7,286046998.4,N
1532587115.5,286046999.3,N
1532587135.3,286046997.1,N
1532587155.2,286046997.3,N
1532587175.0,286046999.6,N
1532587175.9,286046999.6,N
1532587195.7,286046997.4,N
1532587215.6,286046997.0,N
1532587235.4,286046999.2,N
1532587255.3,286046998.3,N
1532587275.1,286047000.8,N
1532587276.0,286047000.8,N
1532587295.8,286047000.9,N
1532587315.7,286047002.4,N
1532587335.5,286047001.8,N
1532587355.3,286046999.8,N
1532587375.2,286046999.8,N
1532587395.0,286047000.0,N
1532587395.9,286047000.0,N
1532587415.8,286046999.7,N
1532587435.6,286046999.9,N
1532587455.5,286047003.1,N
1532587475.3,286047004.0,N
1532587495.1,286047000.1,N
1532587515.9,286046998.6,N
1532587535.7,286046999.0,N
1532587555.5,286046998.5,N
1532587575.4,286046999.7,N
1532587595.2,286047001.0,N
1532587615.1,286047002.3,N
1532587616.0,286047002.3,N
1532587635.8,286047002.8,N
1532587685.7,286047001.0,E
1532587695.6,286047000.9,N
1532587715.4,286046999.4,P
1532587735.3,286046997.1,P
1532587755.1,286046997.8,N
1532587775.8,286047000.5,N
1532587795.7,286047000.4,N
1532587815.5,286047000.5,N
1532587835.4,286047000.4,N
1532587855.2,286046998.4,N
1532587875.0,286047002.4,N
1532587875.9,286047002.4,N
1532587895.8,286047003.6,N
1532587915.6,286047004.4,N
1532587935.4,286047002.6,N
1532587955.3,286047000.3,N
1532587975.1,286047001.9,N
1532587995.9,286047001.3,N
1532588015.7,286047004.0,N
1532588035.5,286047001.3,N
1532588055.4,286046999.7,N
1532588075.2,286047000.8,N
1532588095.0,286046996.9,N
1532588095.9,286046996.9,N
1532588115.8,286046997.6,N
1532588135.6,286046995.4,N
1532588155.5,286046996.3,N
1532588175.3,286046993.4,N
1532588195.1,286046993.5,N
1532588215.9,286046995.8,N
1532588235.7,286046995.7,N
1532588255.5,286046995.8,N
1532588275.4,286046993.5,N
1532588295.2,286046993.8,N
1532588315.1,286046993.9,N
1532588316.0,286046993.9,N
1532588335.8,286046993.3,N
1532588355.6,286046996.4,N
1532588375.5,286046993.8,N
1532588395.3,286046993.3,N
